OpenBCM V1.07b12 (Linux)

Packet Radio Mailbox

SR8BBS

[OBCM_Lublin]

 Login: GUEST





  
I0OJJ  > KEPS     04.09.25 23:08z 316 Lines 15000 Bytes #3 (0) @ AMSAT
BID : ORB25247.1
Read: GUEST
Subj: 2Line Orbital Elements 25247.AMSAT
Path: SR8BBS<SR1BSZ<EA2RCF<I0OJJ
Sent: 250904/0025z @:I0OJJ.ITA.EU [Rome] obcm1.08-10-g596e
From: I0OJJ @ I0OJJ.ITA.EU (Gustavo)
To:   KEPS @ AMSAT
X-Info: This message was generated automatically


QST de W1STR

AMSAT Orbital Elements for Amateur Satellites in TLE Format
From Orbital Analysis Office
New England Sci-Tech STEM Education Center
Natick MA September 04, 2025
To all radio amateurs


These element sets describe the orbits of various satellites 
in use by the amateur radio community. For details see:
www.amsat.org/keplerian-elements-formats/

A daily update of element sets is available at:
www.amsat.org/tle/daily-bulletin.txt
or without bulletin text:
www.amsat.org/tle/dailytle.txt


AO-07
1 07530U 74089B   25246.25831644 -.00000027  00000-0  12198-3 0  9999
2 07530 101.9975 251.4439 0012034 320.3102  51.3096 12.53691191324560
UO-11
1 14781U 84021B   25245.91766293  .00003723  00000-0  39515-3 0  9998
2 14781  97.7625 210.6461 0009222  60.9888 299.2252 14.89622894214341
AO-27
1 22825U 93061C   25246.16196889  .00000265  00000-0  11831-3 0  9995
2 22825  98.7294 308.1148 0007738 216.0103 144.0558 14.30824654665958
FO-29
1 24278U 96046B   25246.14858020  .00000026  00000-0  59728-4 0  9998
2 24278  98.5613 128.7345 0350743 120.7937 242.8224 13.53252821434342
NOAA-15
1 25338U 98030A   25246.21414647  .00000353  00000-0  16269-3 0  9997
2 25338  98.5329 269.2735 0011427 106.8259 253.4176 14.27011456420363
GO-32
1 25397U 98043D   25246.18388025  .00000226  00000-0  11806-3 0  9993
2 25397  98.9793 227.1238 0001130  15.1033 345.0179 14.24335295410479
ISS
1 25544U 98067A   25246.19936559  .00014267  00000-0  25396-3 0  9994
2 25544  51.6337 280.4082 0003342 309.8573  50.2122 15.50393129527260
NO-44
1 26931U 01043C   25246.00901305  .00000329  00000-0  15396-3 0  9997
2 26931  67.0491 266.9552 0006978 275.7361  84.2945 14.31771526249336
SO-50
1 27607U 02058C   25246.13295184  .00002662  00000-0  34217-3 0  9995
2 27607  64.5540 296.4067 0065247 315.9370  43.6546 14.81843408221907
CO-55
1 27844U 03031E   25246.26044937  .00000736  00000-0  33929-3 0  9991
2 27844  98.6789 253.4389 0008585 303.2106  56.8249 14.24057980150830
CO-57
1 27848U 03031J   25245.54616876  .00000621  00000-0  29303-3 0  9996
2 27848  98.6815 252.6744 0008796 324.7689  35.2907 14.23383033150458
RS-22
1 27939U 03042A   25246.24690703  .00002891  00000-0  46252-3 0  9991
2 27939  98.3356  57.8165 0012622  97.8637  75.0622 14.72551107173300
CO-58
1 28895U 05043F   25246.14955981  .00004047  00000-0  66230-3 0  9990
2 28895  98.2613  31.6380 0015135  39.8851 320.3464 14.71293258 59528
CO-65
1 32785U 08021C   25246.25188144  .00012463  00000-0  87513-3 0  9991
2 32785  97.7938 218.1308 0007287 285.9447  74.0976 15.05263010941961
CO-66
1 32791U 08021J   25245.91187464  .00029421  00000-0  13373-2 0  9998
2 32791  97.7343 228.0002 0002587 187.4762 172.6434 15.20702252943456
RS-30
1 32953U 08025A   25246.27303545  .00000020  00000-0  75355-4 0  9996
2 32953  82.5071 173.8963 0018130 216.5639 143.4204 12.43167922784047
NOAA-19
1 33591U 09005A   25246.21511799  .00000263  00000-0  16391-3 0  9993
2 33591  98.9905 311.3736 0014718 120.2085 240.0546 14.13402983853941
SRMSAT
1 37841U 11058D   25246.01689182  .00000577  00000-0  16968-3 0  9994
2 37841  19.9734 357.5243 0011665 285.3848 233.7062 14.11459976717199
ZACUBE-1
1 39417U 13066B   25246.14423619  .00010786  00000-0  91386-3 0  9991
2 39417  97.7856 202.7746 0044937 125.1386 235.4059 14.97367597637719
Delfi-N3xt
1 39428U 13066N   25245.78197621  .00017984  00000-0  17730-2 0  9990
2 39428  97.8286 162.5105 0085250  80.0258 281.0568 14.89337950631752
GOMX-1
1 39430U 13066Q   25246.24504053  .00004087  00000-0  63580-3 0  9991
2 39430  97.6748  99.6323 0130294 278.3549  80.2903 14.67948965627793
LO-74
1 39440U 13066AA  25246.28833073  .00007982  00000-0  79448-3 0  9990
2 39440  97.8527 190.3058 0059489 256.8479 102.6096 14.90576289634202
AO-73
1 39444U 13066AE  25246.17298942  .00018400  00000-0  13278-2 0  9997
2 39444  97.7896 208.5020 0043088  97.4805 263.1319 15.03405079636447
DTUSAT-2
1 40030U 14033W   25246.17749644  .00015728  00000-0  98709-3 0  9998
2 40030  98.0627 222.2339 0010862 124.4983 235.7272 15.09344891609302
EO-80
1 40032U 14033Y   25246.19338428  .00017797  00000-0  11134-2 0  9990
2 40032  98.0515 221.7860 0010571  76.5688 283.6717 15.09434713609285
LILACSAT-2
1 40908U 15049K   25246.26118016  .00024990  00000-0  60975-3 0  9998
2 40908  97.5042 268.7734 0008313 199.0456 161.0480 15.40826926551415
IO-86
1 40931U 15052B   25151.18580175  .00001241  00000-0  78118-4 0  9996
2 40931   6.0006  24.0987 0012733 338.8432  21.1169 14.78805930523159
Horyu-4
1 41340U 16012D   25246.23976632  .00053616  00000-0  12617-2 0  9999
2 41340  30.9961 274.4187 0006827 226.6500 133.3578 15.40675516525999
Lapan A3
1 41603U 16040E   25246.30130356  .00007346  00000-0  25178-3 0  9991
2 41603  97.1411 247.5888 0009651 332.8695  27.2041 15.30427369510897
CAS-2T
1 41847U 16066G   25246.14274643  .00001509  00000-0  22448-3 0  9991
2 41847  98.4144 319.8466 0344217 279.6464  76.6006 14.43686791463368
CAS-4B
1 42759U 17034B   25246.75746220  .00229291  00000-0  12043-2 0  9991
2 42759  43.0013 163.4408 0022152 186.4029 173.6562 15.78957114456146
CAS-4A
1 42761U 17034D   25246.24985344  .00344567  00000-0  15750-2 0  9992
2 42761  43.0047 162.3449 0022783 188.4255 171.6237 15.81651437456096
TechnoSat
1 42829U 17042E   25246.25348414  .00007617  00000-0  57944-3 0  9992
2 42829  97.4007  50.9186 0017402 359.9284   0.1936 15.02264098443587
AO-91
1 43017U 17073E   25246.07401199  .00014765  00000-0  73762-3 0  9994
2 43017  97.5110 114.7019 0167379 234.7138 123.8337 15.06072155422078
S-Net D
1 43186U 18014G   25245.99267549  .00010887  00000-0  62634-3 0  9993
2 43186  97.5522 148.0250 0007065 297.0474  63.0035 15.12612158415284
S-Net B
1 43187U 18014H   25246.19765927  .00011855  00000-0  68180-3 0  9998
2 43187  97.5525 148.2041 0007670 290.0602  69.9803 15.12597543415318
S-Net A
1 43188U 18014J   25245.99275705  .00011064  00000-0  63626-3 0  9998
2 43188  97.5531 148.1627 0007589 291.9680  68.0744 15.12618342415281
S-Net C
1 43189U 18014K   25246.20026598  .00012015  00000-0  69083-3 0  9998
2 43189  97.5548 148.3969 0009058 281.3313  78.6900 15.12594376413863
Ten-Koh
1 43677U 18084G   25246.20630568  .00005957  00000-0  47204-3 0  9993
2 43677  98.0824  61.8561 0006261 348.7158  11.3923 15.00952844373086
PO-101
1 43678U 18084H   25246.26064825  .00005828  00000-0  48942-3 0  9994
2 43678  98.1105  65.7001 0008895  16.8648 343.2867 14.98707296373218
QO-100
1 43700U 18090A   25246.24288345  .00000145  00000-0  00000-0 0  9997
2 43700   0.0221 235.7411 0001149 301.6573 278.5024  1.00273732 24799
MinXSS-2
1 43758U 18099A   25245.91935436  .00038441  00000-0  13900-2 0  9997
2 43758  97.4949 312.3403 0010917 208.1589 151.9062 15.28281721369995
AO-95
1 43770U 18099N   25245.68929120  .00020570  00000-0  99276-3 0  9993
2 43770  97.4848 302.8770 0008758 275.2431  84.7804 15.18670475369465
SNUSat 2
1 43782U 18099AA  25246.06527641  .00016062  00000-0  84276-3 0  9996
2 43782  97.4526 299.2885 0011081 210.1818 149.8778 15.15770637369446
SnugLite
1 43784U 18099AC  25246.09598100  .00022427  00000-0  10714-2 0  9996
2 43784  97.4340 299.0669 0003141 191.1433 168.9733 15.19034311369617
ITASat 1
1 43786U 18099AE  25246.10341329  .00014755  00000-0  81528-3 0  9996
2 43786  97.4494 298.5757 0012541 269.7885  90.1910 15.13936906369391
EAGLET 1
1 43790U 18099AJ  25246.13741098  .00009445  00000-0  58855-3 0  9998
2 43790  97.4696 298.2669 0010255 252.8493 107.1614 15.09725082368976
ESEO
1 43792U 18099AL  25246.09867467  .00002995  00000-0  22728-3 0  9997
2 43792  97.4395 290.3312 0010793 226.8316 133.2008 15.02899645368667
JO-97
1 43803U 18099AX  25246.13764410  .00027091  00000-0  11622-2 0  9993
2 43803  97.4588 304.5146 0007126 193.9705 166.1336 15.22674568369789
Suomi 100
1 43804U 18099AY  25246.23150066  .00024153  00000-0  11224-2 0  9995
2 43804  97.4657 303.6430 0011612 202.2137 157.8596 15.19921210369703
ISAT
1 43879U 18111D   25246.22561434  .00048751  00000-0  15126-2 0  9991
2 43879  97.5877 162.6632 0005425 242.0151 118.0542 15.33223094366809
UWE-4
1 43880U 18111E   25246.18839352  .00038382  00000-0  13842-2 0  9997
2 43880  97.5820 160.4596 0008745 267.2173  92.8065 15.28389779366698
Sparrow
1 43881U 18111F   25246.19864790  .00054071  00000-0  16009-2 0  9994
2 43881  97.6035 165.8659 0003499 305.6625  54.4292 15.34691137366908
Prox-1
1 44339U 19036A   25246.27204767  .00026733  00000-0  32792-2 0  9992
2 44339  23.9951 218.2481 0006442 328.1607  31.8500 14.81644736330730
Taurus 1
1 44530U 19059C   25246.29979075  .00017887  00000-0  32028-2 0  9995
2 44530  98.6150  29.8581 0009894 128.5956 231.6134 14.66842109316502
Duchifat 3
1 44854U 19089C   25246.16081221  .00139798  00000-0  19881-2 0  9998
2 44854  36.9383 168.1047 0008597 275.8825  84.0955 15.54955659316300
TO-108
1 44881U 19093C   25246.29747711  .00001970  00000-0  23258-3 0  9994
2 44881  97.7868 320.1388 0012666 314.4970  45.5209 14.85763836308801
FloripaSat 1
1 44885U 19093G   25246.26619264  .00015100  00000-0  12373-2 0  9991
2 44885  97.8159 334.0768 0007584 280.5926  79.4442 14.99348575309587
RS-44
1 44909U 19096E   25246.08424046  .00000034  00000-0  83016-4 0  9997
2 44909  82.5255 170.4817 0218502  95.5885 267.0177 12.79743164265626
UPMSat 2
1 46276U 20061E   25245.81163417  .00285132  00000-0  11879-2 0  9992
2 46276  97.2321 323.8489 0002453 219.1212 140.9882 15.84970633278881
SALSAT
1 46495U 20068K   25245.94754428  .00015180  00000-0  63030-3 0  9995
2 46495  97.8682 228.0223 0009817 216.6243 143.4323 15.23896780271524
